Back to catalog

STARLINK-30068

AliveCommunicationsVLEO
NORAD 56698·PAYLOAD·🇺🇸 United States

Launched May 19, 2023 from Cape Canaveral Space Force Station

Loading…

Next Passes (next 24 hours)

TLE

FreshSource: CelesTrak SupGP

Epoch: Sep 14, 2026, 13:58 UTC

1 56698C 23067L   26257.58243056  .00019503  00000+0  70629-3 0  2578
2 56698  43.0018 273.1248 0001384 275.4690 218.3516 15.27574516    18

Track STARLINK-30068 in real time with AllMySat

Download on the App Store